Regional Weather Roundup
Issued by NWS

Home | Current Version | Previous Version | Graphics & Text | Print | Product List | Glossary On
Versions: 1 2 3 4 5 6 7 8 9 10 11 12 13 14 15 16 17 18 19 20 21 22 23 24 25 26 27 28 29 30 31 32 33 34 35 36 37 38 39 40 41 42 43 44 45 46 47 48 49 50
000
ASUS43 KMPX 011710
RWRMN
WEATHER ROUNDUP FOR MINNESOTA
NATIONAL WEATHER SERVICE TWIN CITIES/CHANHASSEN MN
1100 AM CST WED MAR 01 2017


NOTE: "FAIR" INDICATES FEW OR NO CLOUDS BELOW 12,000 FEET WITH NO
SIGNIFICANT WEATHER AND/OR OBSTRUCTIONS TO VISIBILITY. N/A MEANS
CURRENT SKY AND/OR WEATHER CONDITIONS ARE NOT AVAILABLE.

MNZ060>063-068>070-011800-
   Twin Cities Metro

CITY           SKY/WX    TMP DP  RH WIND       PRES   REMARKS
TWIN CITIES    PTSUNNY   30  21  69 N16       29.88R WCI  19
ST PAUL        PTSUNNY   29  21  72 NW15      29.90R WCI  18
CRYSTAL        PTSUNNY   31  21  66 N13       29.88R WCI  21
BLAINE         PTSUNNY   32  23  69 NW14      29.88R WCI  22
LAKEVILLE      PTSUNNY   28  23  80 N14       29.87R WCI  17
EDEN PRAIRIE   PTSUNNY   32  22  66 NW14G23   29.88R WCI  22
SOUTH ST PAUL  CLOUDY    30  20  67 N16       29.88R WCI  19
LAKE ELMO      CLOUDY    30  23  74 N13       29.88R WCI  20
$$
MNZ001>005-007-008-013>017-022>024-027-028-011800-
   Northwest Minnesota

CITY           SKY/WX    TMP DP  RH WIND       PRES   REMARKS
BEMIDJI        MOSUNNY   25  11  55 NW16      29.92S WCI  12
HALLOCK        PTSUNNY   16  10  79 NW12      30.05R WCI   3
ROSEAU         LGT SNOW  16  10  79 CALM      30.00S
WARROAD        MIX PCPN  16  12  86 NW6       30.00S WCI   7
THIEF RVR FALL SUNNY     19  13  77 N14       30.00R WCI   6
CROOKSTON      SUNNY     18  12  79 N15       30.04R WCI   3
FOSSTON        PTSUNNY   21  10  63 NW12      29.97S WCI   9
DETROIT LAKES  MOSUNNY   23  16  74 NW13      29.96S WCI  11
MOORHEAD       MIX PCPN  19  16  86 N13       30.04R WCI   7
PARK RAPIDS    SUNNY     29  13  51 NW14      29.90R WCI  18
MAHNOMEN       CLOUDY    21  13  73 N13       29.97S WCI   8
$$
MNZ006-009>011-018-025>026-011800-
   North Central Minnesota

CITY           SKY/WX    TMP DP  RH WIND       PRES   REMARKS
BAUDETTE       FLURRIES  16   5  62 NW8       29.96R WCI   5
FLAG ISLAND    CLOUDY    16   3  57 CALM      29.99R
INTL FALLS     MOSUNNY   15  -1  49 N6        29.94S WCI   6
WASKISH        PTSUNNY   19   7  58 W6        29.95R WCI  11
BIG FORK       SUNNY     21   5  49 NW5       29.90S WCI  15
LONGVILLE      SUNNY     25   9  50 NW8       29.91R WCI  16
GRAND RAPIDS   SUNNY     25  10  53 N7        29.90S WCI  17
CRANE LAKE     SUNNY     14  -2  48 N5        29.94S WCI   6
ORR            SUNNY     18   0  45 CALM      29.88R
COOK           MOSUNNY   19   1  45 NW5       29.89R WCI  13
WALKER         FAIR      24   9  52 NW12      29.91R WCI  13
$$
MNZ012-019>021-037-011800-
   Northeast Minnesota

CITY           SKY/WX    TMP DP  RH WIND       PRES   REMARKS
DULUTH         CLOUDY    20   9  62 NW3       29.85R
ELY            MOSUNNY   16  -2  45 NE5       29.86F WCI   9
HIBBING        SUNNY     20   5  52 NW6       29.87R WCI  12
EVELETH        CLOUDY    22  -2  34 NE5       29.87R WCI  16
DULUTH HARBOR  CLOUDY    25  18  74 CALM      29.91S
TWO HARBORS    PTSUNNY   25  12  58 CALM      29.85S
SILVER BAY     MOSUNNY   21   3  45 CALM      29.84F
GRAND MARAIS     N/A     21  -2  36 E3        29.89F
G MARAIS ARPRT CLOUDY    16  -6  38 NW13      29.80S WCI   2
$$
MNZ029>031-032-039>041-046>048-054>057-064-011800-
   West Central Minnesota

CITY           SKY/WX    TMP DP  RH WIND       PRES   REMARKS
FERGUS FALLS   MOSUNNY   23  16  74 NW18      30.03R WCI   9
WHEATON        MOSUNNY   25  18  74 NW18      30.03R WCI  11
MORRIS         SUNNY     27  18  69 NW22G30   29.97R WCI  12
ALEXANDRIA     SUNNY     30  19  63 NW17      29.93R WCI  18
ELBOW LAKE     FAIR      22  16  76 W15       29.98R WCI   9
WADENA         SUNNY     27  18  69 NW15      29.91S WCI  15
GLENWOOD       SUNNY     28  21  74 NW18      29.93R WCI  16
APPLETON       SUNNY     28  19  69 NW17G24   29.98R WCI  16
BENSON         SUNNY     30  19  64 N21       29.98R WCI  17
ORTONVILLE     SUNNY     27  18  69 NW20      29.99R WCI  13
MADISON        SUNNY     30  21  69 NW21      29.99R WCI  17
WILLMAR        FAIR      32  27  80 NW18      29.95R WCI  20
$$
MNZ033>034-036-042>043-049>051-058-059-011800-
   Central Minnesota

CITY           SKY/WX    TMP DP  RH WIND       PRES   REMARKS
ST CLOUD       PTSUNNY   30  23  75 NW8       29.90R WCI  22
SAUK CENTRE    FAIR      30  21  68 NW15      29.92R WCI  19
PAYNESVILLE    CLOUDY    31  24  77 NW13      29.93R WCI  21
AITKIN         SUNNY     28  10  47 N5        29.87R WCI  23
PINE RIVER     SUNNY     25  12  58 NW9       29.93S WCI  15
BRAINERD       SUNNY     27  15  61 N16       29.90R WCI  15
STAPLES        SUNNY     27  18  69 NW13      29.91R WCI  16
LONG PRAIRIE   FAIR      30  21  69 W12       29.91R WCI  21
LITTLE FALLS   CLOUDY    32  21  64 NW9G16    29.90R WCI  24
LITCHFIELD     CLOUDY    32  27  80 NW10      29.92R WCI  24
BUFFALO        PTSUNNY   32  24  74 NW10      29.91R WCI  23
MAPLE LAKE     CLOUDY    32  27  80 NW9       29.91R WCI  24
HUTCHINSON     CLOUDY    32  26  78 NW13      29.92R WCI  22
$$
MNZ037-044-045-052-053-011800-
   East Central Minnesota

CITY           SKY/WX    TMP DP  RH WIND       PRES   REMARKS
PRINCETON      SUNNY     28  19  69 N8        29.90R WCI  20
MORA           SUNNY     30  19  64 N6        29.90R WCI  24
CAMBRIDGE      SUNNY     30  19  64 N6        29.87R WCI  24
RUSH CITY      MOSUNNY   28  19  69 N8        29.89R WCI  20
MOOSE LAKE     MOSUNNY   27  14  59 N3        29.86S
HINCKLEY       PTSUNNY   28  19  69 NW10      29.88S WCI  19
CLOQUET        CLOUDY    21  10  63 CALM      29.86S
MCGREGOR       SUNNY     27  12  54 N5        29.89R WCI  21
$$
MNZ071>073-080-081-089-090-097-098-011800-
   Southwest Minnesota

CITY           SKY/WX    TMP DP  RH WIND       PRES   REMARKS
MONTEVIDEO     SUNNY     28  21  74 N17G23    29.99R WCI  16
GRANITE FALLS  MOSUNNY   31  24  75 NW18G24   29.99R WCI  19
CANBY          SUNNY     31  23  71 W13G18    30.00R WCI  22
MARSHALL       SUNNY     30  21  69 NW18      29.97  WCI  18
REDWOOD FALLS  MOSUNNY   33  21  61 NW14G24   29.95R WCI  23
OLIVIA         MOSUNNY   34  27  75 NW18G25   29.93R WCI  23
PIPESTONE      SUNNY     28  19  69 NW18G24   29.96R WCI  16
WINDOM         SUNNY     32  25  74 NW20G25   29.94R WCI  20
WORTHINGTON    PTSUNNY   33  26  75 NW16      29.96R WCI  23
JACKSON        MOSUNNY   32  27  80 NW20G25   29.94R WCI  20
TRACY          SUNNY     31  25  77 NW21G26   29.97R WCI  19
SLAYTON        MOSUNNY   30  25  81 NW16G23   29.96R WCI  19
$$
MNZ065>067-074>077-082>085-091>093-011800-
   South Central Minnesota

CITY           SKY/WX    TMP DP  RH WIND       PRES   REMARKS
MANKATO          N/A     32  25  75 NW16      29.91R WCI  21
NEW ULM        CLOUDY    30  25  80 NW17      29.92R WCI  18
ST JAMES       PTSUNNY   30  27  86 NW17      29.94R WCI  18
FAIRMONT       PTSUNNY   32  26  78 NW17G25   29.93R WCI  21
GLENCOE        CLOUDY    32  28  83 NW12      29.90R WCI  23
FARIBAULT      CLOUDY    30  25  80 NW15G21   29.88R WCI  19
WASECA         CLOUDY    32  28  86 NW20      29.89R WCI  20
ALBERT LEA     CLOUDY    30  27  86 NW16      29.86R WCI  19
$$
MNZ078>079-086>088-094>096-011800-
   Southeast Minnesota

CITY           SKY/WX    TMP DP  RH WIND       PRES   REMARKS
ROCHESTER      CLOUDY    27  23  85 NW23      29.81R WCI  12
RED WING       CLOUDY    28  21  74 N9G20     29.84R WCI  20
STANTON        MOSUNNY   30  22  74 NW17      29.86R WCI  18
WINONA         LGT SNOW  30  28  93 NW15      29.79R WCI  19
AUSTIN         CLOUDY    28  23  80 NW16G25   29.84R WCI  17
PRESTON        CLOUDY    27  23  85 NW17G24   29.80R FOG     WCI  14
$$
ABBREVIATIONS USED IN REMARKS
   TC - TEMPERATURES IN CELSIUS
  WCI - WIND CHILL INDEX
   HX - HEAT INDEX
  VSB - VISIBILITY
$$



USA.gov is the U.S. government's official web portal to all federal, state and local government web resources and services.